When you browse on this site, cookies collect data to enhance your experience and personalize the content and advertising you see.
Visit our Privacy Policy to learn more. By continuing to use the site, you agree to this use of cookies and data.
  • In Hungary
  • List of Countries
  • For 7 days
  • Water Temperature
  • Weather Map
  • News
  • Weather Widgets
  • user-avatar
    Login

    Hourly Weather Biała Podlaska

    Today, 7 December, Saturday

    Time Temperature Precipitation Wind Pressure Humidity
    00:00 -4°C° 0 mm 6 mps 745 mmHg 65%
    01:00 -4°C° 0 mm 6 mps 744 mmHg 65%
    02:00 -4°C° 0 mm 5 mps 744 mmHg 66%
    03:00 -4°C° 0 mm 5 mps 744 mmHg 66%
    04:00 -4°C° 0 mm 6 mps 743 mmHg 65%
    05:00 -4°C° 0 mm 6 mps 743 mmHg 65%
    06:00 -3°C° 0 mm 6 mps 742 mmHg 64%
    07:00 -3°C° 0 mm 6 mps 742 mmHg 62%
    08:00 -3°C° 0 mm 6 mps 742 mmHg 61%
    09:00 -2°C° 0 mm 7 mps 742 mmHg 59%
    10:00 -1°C° 0 mm 7 mps 742 mmHg 57%
    11:00 0°C° 0 mm 8 mps 741 mmHg 55%
    12:00 0°C° 0 mm 8 mps 741 mmHg 63%
    13:00 0°C° 0 mm 7 mps 741 mmHg 71%
    14:00 0°C° 0 mm 7 mps 741 mmHg 79%
    15:00 +2°C° 0 mm 7 mps 741 mmHg 81%
    16:00 +1°C° 0 mm 8 mps 740 mmHg 83%
    17:00 +2°C° 0 mm 8 mps 740 mmHg 84%
    18:00 +2°C° 0 mm 8 mps 740 mmHg 86%
    19:00 +2°C° 0 mm 8 mps 741 mmHg 88%
    20:00 +2°C° 0 mm 8 mps 741 mmHg 90%
    21:00 +3°C° 0.1 mm 7 mps 741 mmHg 90%
    22:00 +3°C° 0.1 mm 7 mps 741 mmHg 90%
    23:00 +3°C° 0.1 mm 6 mps 741 mmHg 90%

    Tomorrow, 8 December, Sunday

    Time Temperature Precipitation Wind Pressure Humidity
    00:00 +3°C° 0.2 mm 6 mps 742 mmHg 91%
    01:00 +3°C° 0.2 mm 6 mps 742 mmHg 91%
    02:00 +3°C° 0.2 mm 6 mps 742 mmHg 92%
    03:00 +3°C° 0.5 mm 6 mps 742 mmHg 89%
    04:00 +3°C° 0.5 mm 6 mps 742 mmHg 86%
    05:00 +2°C° 0.5 mm 5 mps 742 mmHg 83%
    06:00 +2°C° 0 mm 5 mps 743 mmHg 86%
    07:00 +2°C° 0 mm 5 mps 743 mmHg 89%
    08:00 +3°C° 0 mm 4 mps 744 mmHg 93%
    09:00 +2°C° 0.2 mm 5 mps 744 mmHg 91%
    10:00 +3°C° 0.2 mm 6 mps 743 mmHg 89%
    11:00 +3°C° 0.2 mm 6 mps 743 mmHg 87%
    12:00 +4°C° 0 mm 6 mps 743 mmHg 83%
    13:00 +4°C° 0 mm 6 mps 743 mmHg 79%
    14:00 +5°C° 0 mm 6 mps 743 mmHg 75%
    15:00 +4°C° 0 mm 6 mps 742 mmHg 75%
    16:00 +4°C° 0 mm 6 mps 742 mmHg 75%
    17:00 +4°C° 0 mm 6 mps 741 mmHg 75%
    18:00 +4°C° 0 mm 6 mps 741 mmHg 76%
    19:00 +3°C° 0 mm 6 mps 741 mmHg 77%
    20:00 +3°C° 0 mm 7 mps 741 mmHg 79%
    21:00 +3°C° 0 mm 7 mps 740 mmHg 78%
    22:00 +3°C° 0 mm 7 mps 740 mmHg 78%
    23:00 +3°C° 0 mm 7 mps 739 mmHg 78%

    Day after tomorrow, 9 December, Monday

    Time Temperature Precipitation Wind Pressure Humidity
    00:00 +3°C° 0.1 mm 7 mps 739 mmHg 79%
    01:00 +4°C° 0.1 mm 7 mps 739 mmHg 80%
    02:00 +4°C° 0.1 mm 7 mps 738 mmHg 82%
    03:00 +4°C° 0 mm 7 mps 738 mmHg 82%
    04:00 +4°C° 0 mm 7 mps 737 mmHg 83%
    05:00 +4°C° 0 mm 7 mps 737 mmHg 83%
    06:00 +4°C° 0.3 mm 7 mps 737 mmHg 85%
    07:00 +4°C° 0.3 mm 7 mps 737 mmHg 86%
    08:00 +4°C° 0.3 mm 7 mps 737 mmHg 88%
    09:00 +4°C° 0.2 mm 7 mps 737 mmHg 87%
    10:00 +4°C° 0.2 mm 7 mps 737 mmHg 86%
    11:00 +5°C° 0.2 mm 7 mps 737 mmHg 85%
    12:00 +5°C° 0 mm 6 mps 737 mmHg 82%
    13:00 +5°C° 0 mm 6 mps 737 mmHg 79%
    14:00 +5°C° 0 mm 6 mps 737 mmHg 77%
    15:00 +6°C° 0 mm 5 mps 737 mmHg 78%
    16:00 +6°C° 0 mm 5 mps 737 mmHg 79%
    17:00 +5°C° 0 mm 4 mps 737 mmHg 80%
    18:00 +5°C° 0 mm 4 mps 737 mmHg 80%
    19:00 +5°C° 0 mm 4 mps 738 mmHg 80%
    20:00 +5°C° 0 mm 4 mps 738 mmHg 80%
    21:00 +5°C° 0 mm 5 mps 738 mmHg 79%
    22:00 +3°C° 0 mm 5 mps 738 mmHg 79%
    23:00 +3°C° 0 mm 5 mps 738 mmHg 79%

    10 December, Tuesday

    Time Temperature Precipitation Wind Pressure Humidity
    00:00 +3°C° 0 mm 5 mps 738 mmHg 82%
    01:00 +3°C° 0 mm 5 mps 738 mmHg 85%
    02:00 +2°C° 0 mm 5 mps 738 mmHg 88%
    03:00 +2°C° 0 mm 5 mps 738 mmHg 85%
    04:00 +2°C° 0 mm 5 mps 739 mmHg 83%
    05:00 +2°C° 0 mm 5 mps 739 mmHg 81%
    06:00 +2°C° 0 mm 5 mps 739 mmHg 83%
    07:00 +1°C° 0 mm 5 mps 740 mmHg 85%
    08:00 +1°C° 0 mm 5 mps 740 mmHg 87%
    09:00 +2°C° 0 mm 5 mps 741 mmHg 86%
    10:00 +2°C° 0 mm 6 mps 741 mmHg 85%
    11:00 +3°C° 0 mm 6 mps 742 mmHg 84%
    12:00 +3°C° 0 mm 6 mps 742 mmHg 80%
    13:00 +3°C° 0 mm 6 mps 743 mmHg 76%
    14:00 +4°C° 0 mm 6 mps 743 mmHg 72%
    15:00 +3°C° 0 mm 6 mps 744 mmHg 73%
    16:00 +3°C° 0 mm 6 mps 744 mmHg 75%
    17:00 +2°C° 0 mm 6 mps 745 mmHg 76%
    18:00 +2°C° 0.1 mm 6 mps 746 mmHg 78%
    19:00 +2°C° 0.1 mm 6 mps 747 mmHg 80%
    20:00 +1°C° 0.1 mm 6 mps 748 mmHg 82%
    21:00 +1°C° 0 mm 6 mps 749 mmHg 79%
    22:00 0°C° 0 mm 5 mps 750 mmHg 76%
    23:00 -1°C° 0 mm 5 mps 751 mmHg 73%

    11 December, Wednesday

    Time Temperature Precipitation Wind Pressure Humidity
    00:00 -1°C° 0 mm 4 mps 751 mmHg 74%
    01:00 -1°C° 0 mm 3 mps 752 mmHg 76%
    02:00 -2°C° 0 mm 2 mps 752 mmHg 78%
    03:00 -2°C° 0 mm 2 mps 753 mmHg 76%
    04:00 -2°C° 0 mm 2 mps 753 mmHg 75%
    05:00 0°C° 0 mm 1 mps 753 mmHg 73%
    06:00 0°C° 0 mm 1 mps 753 mmHg 71%
    07:00 0°C° 0 mm 1 mps 753 mmHg 70%
    08:00 -1°C° 0 mm 0 mps 753 mmHg 68%
    09:00 +1°C° 0 mm 1 mps 754 mmHg 64%
    10:00 -1°C° 0 mm 2 mps 754 mmHg 59%
    11:00 0°C° 0 mm 3 mps 754 mmHg 55%
    12:00 0°C° 0 mm 3 mps 754 mmHg 52%
    13:00 -1°C° 0 mm 4 mps 753 mmHg 50%
    14:00 0°C° 0 mm 4 mps 753 mmHg 47%
    15:00 -1°C° 0 mm 4 mps 752 mmHg 51%
    16:00 -2°C° 0 mm 4 mps 752 mmHg 56%
    17:00 -1°C° 0 mm 3 mps 752 mmHg 60%
    18:00 -2°C° 0 mm 4 mps 752 mmHg 64%
    19:00 -2°C° 0 mm 4 mps 751 mmHg 67%
    20:00 -2°C° 0 mm 5 mps 751 mmHg 71%
    21:00 -2°C° 0 mm 5 mps 751 mmHg 75%
    22:00 -2°C° 0 mm 5 mps 751 mmHg 79%
    23:00 -2°C° 0 mm 5 mps 750 mmHg 83%

    12 December, Thursday

    Time Temperature Precipitation Wind Pressure Humidity
    00:00 -2°C° 0 mm 5 mps 750 mmHg 85%
    01:00 -2°C° 0 mm 5 mps 750 mmHg 86%
    02:00 -2°C° 0 mm 5 mps 749 mmHg 88%
    03:00 -2°C° 0 mm 4 mps 749 mmHg 89%
    04:00 -2°C° 0 mm 4 mps 748 mmHg 89%
    05:00 -2°C° 0 mm 4 mps 748 mmHg 90%
    06:00 -2°C° 0 mm 4 mps 748 mmHg 90%
    07:00 -2°C° 0 mm 4 mps 748 mmHg 90%
    08:00 -3°C° 0 mm 4 mps 747 mmHg 90%
    09:00 -2°C° 0 mm 4 mps 747 mmHg 87%
    10:00 -1°C° 0 mm 4 mps 747 mmHg 84%
    11:00 -1°C° 0 mm 5 mps 747 mmHg 81%
    12:00 0°C° 0 mm 4 mps 747 mmHg 79%
    13:00 0°C° 0 mm 4 mps 747 mmHg 78%
    14:00 +1°C° 0 mm 4 mps 746 mmHg 76%
    15:00 0°C° 0 mm 4 mps 746 mmHg 81%
    16:00 0°C° 0 mm 3 mps 746 mmHg 85%
    17:00 0°C° 0 mm 3 mps 746 mmHg 90%
    18:00 -1°C° 0 mm 3 mps 746 mmHg 90%
    19:00 -1°C° 0 mm 3 mps 745 mmHg 91%
    20:00 -1°C° 0 mm 3 mps 745 mmHg 92%
    21:00 -1°C° 0 mm 3 mps 745 mmHg 91%
    22:00 -1°C° 0 mm 3 mps 744 mmHg 91%
    23:00 -2°C° 0 mm 4 mps 744 mmHg 91%
    Show more